Regional Weather Roundup
Issued by NWS Goodland, KS

Home | Current Version | Previous Version | Text Only | Print | Product List | Glossary Off
Versions: 1 2 3 4 5 6 7 8 9 10 11 12 13 14 15 16 17 18 19 20 21 22 23 24 25 26 27 28 29 30 31 32 33 34 35 36 37 38 39 40 41 42 43 44 45 46 47 48 49 50

000
ASUS43 KGLD 230108
RWRGLD

GOODLAND FORECAST AREA HOURLY WEATHER ROUNDUP
NATIONAL WEATHER SERVICE GOODLAND KS
700 PM MDT FRI JUL 22 2016

...OFFICIAL OBSERVATIONS...

CITY           SKY/WX    TMP DP  RH WIND       PRES   REMARKS
GOODLAND KS    SUNNY     96  54  24 S13       29.97S
HILL CITY KS   CLOUDY    92  70  48 E3        29.91F
IMPERIAL NEB   CLOUDY    85  67  54 E6        29.97F
MCCOOK NEB     CLOUDY    85  71  63 NE8       29.95R
AKRON CO       CLOUDY    87  59  38 E7        30.04F
BURLINGTON CO  SUNNY     94  54  25 SE15      30.00F
LIMON CO       CLOUDY    83  47  28 W15       30.11F
$$

...UNOFFICIAL OBSERVATIONS...

CITY           SKY/WX    TMP DP  RH WIND       PRES   REMARKS
COLBY KS       SUNNY     93  64  38 E9        29.97S
LENORA KS        N/A     93  32  11 MISG        N/A
NORTON KS      SUNNY     90  61  37 E8        29.92S
TRIBUNE KS     SUNNY     95  55  26 SE10      29.99F
YUMA CO          N/A     89  62  40 SE6         N/A
$$




USA.gov is the U.S. government's official web portal to all federal, state and local government web resources and services.